CDT,Max TemperatureF,Mean TemperatureF,Min TemperatureF,Max Dew PointF,MeanDew PointF,Min DewpointF,Max Humidity, Mean Humidity, Min Humidity, Max Sea Level PressureIn, Mean Sea Level PressureIn, Min Sea Level PressureIn, Max VisibilityMiles, Mean VisibilityMiles, Min VisibilityMiles, Max Wind SpeedMPH, Mean Wind SpeedMPH, Max Gust SpeedMPH,PrecipitationIn, CloudCover, Events, WindDirDegrees
2013-3-1,33,30,28,27,26,23,93,84,70,30.17,30.11,30.07,10,7,2,14,9,18,0.00,8,,309
2013-3-2,30,26,19,25,18,14,93,72,55,30.24,30.21,30.16,10,9,3,14,9,22,0.00,6,,318
2013-3-3,41,28,15,25,18,12,93,66,39,30.21,30.12,30.03,10,10,8,10,3,,0.00,3,,154
2013-3-4,48,40,33,43,31,21,93,67,49,30.03,29.86,29.77,10,10,8,20,10,25,0.00,4,,145
2013-3-5,42,36,30,41,27,18,93,74,48,30.13,29.96,29.79,10,8,1,25,10,39,0.03,8,,280
2013-3-6,39,32,23,23,20,18,80,64,48,30.36,30.29,30.14,10,10,6,24,12,31,0.00,5,,317
2013-3-7,50,36,21,28,23,18,93,69,35,30.40,30.34,30.29,10,10,6,9,2,,0.00,0,,111
2013-3-8,53,40,26,30,26,19,93,59,28,30.42,30.32,30.21,10,10,5,13,5,,0.00,0,,131
2013-3-9,69,56,44,43,31,25,55,41,25,30.20,30.02,29.85,10,10,10,26,10,34,0.00,4,,157
2013-3-10,57,50,44,52,45,36,94,77,44,29.85,29.76,29.69,10,9,2,22,13,31,0.86,8,,182
2013-3-11,44,37,28,39,28,23,87,76,65,30.01,29.85,29.75,10,10,10,16,9,24,0.05,7,,261
2013-3-12,51,38,24,25,22,18,93,58,30,30.22,30.10,30.01,10,10,10,16,6,31,0.00,1,,282
2013-3-13,42,33,24,21,17,12,80,51,31,30.41,30.35,30.23,10,10,10,18,10,24,0.00,2,,302
2013-3-14,53,38,23,34,24,18,86,60,35,30.41,30.26,30.11,10,10,10,17,5,23,0.00,3,,168
2013-3-15,78,54,30,45,38,27,93,56,24,30.10,29.91,29.75,10,10,7,16,4,20,0.00,0,,220
2013-3-16,64,50,37,45,39,34,87,62,45,30.02,29.89,29.72,10,8,4,16,11,22,0.19,3,Thunderstorm,341
2013-3-17,37,35,33,36,33,30,93,91,87,30.07,29.95,29.76,10,6,2,16,11,24,2.91,8,Thunderstorm,52
2013-3-18,48,42,37,37,34,27,100,78,50,30.03,29.80,29.67,10,9,3,17,6,26,0.03,5,Thunderstorm,283
2013-3-19,48,38,28,25,17,12,65,43,24,30.23,30.16,30.04,10,10,10,13,7,18,0.00,2,,297
2013-3-20,39,32,26,30,18,9,93,56,28,30.25,30.18,30.12,10,10,9,20,8,28,0.00,1,,298
2013-3-21,37,27,17,19,13,9,86,52,33,30.11,30.04,29.97,10,10,10,9,2,,0.00,1,,84
2013-3-22,39,34,30,28,26,19,93,71,56,30.03,30.00,29.97,10,9,1,9,5,,0.00,8,,113
2013-3-23,53,44,35,39,29,21,87,59,44,30.03,29.93,29.80,10,10,7,15,7,22,0.03,8,,64
2013-3-24,42,36,30,37,31,25,93,87,76,29.85,29.67,29.54,10,3,1,23,12,32,0.13,8,,332
2013-3-25,35,30,26,28,24,21,87,80,65,30.20,30.01,29.85,10,7,2,21,14,30,0.01,7,,287
2013-3-26,41,34,26,25,22,19,86,67,45,30.35,30.29,30.20,10,10,10,13,8,20,0.00,4,,305
2013-3-27,51,36,21,30,23,16,93,63,30,30.39,30.34,30.28,10,10,10,9,2,,0.00,2,,136
2013-3-28,59,48,37,37,32,28,81,56,36,30.35,30.30,30.24,10,10,10,14,5,21,0.03,6,,124
2013-3-29,57,49,39,48,43,37,93,84,67,30.27,30.22,30.19,10,8,0,10,4,,0.21,5,,119
2013-3-30,53,44,35,46,42,36,100,90,67,30.21,30.08,29.94,10,3,0,12,3,,0.18,7,,150
2013-3-31,66,55,44,50,41,28,100,66,26,29.96,29.91,29.89,10,7,0,12,4,18,0.00,5,,289